When you browse on this site, cookies collect data to enhance your experience and personalize the content and advertising you see.
Visit our Privacy Policy to learn more. By continuing to use the site, you agree to this use of cookies and data.
  • In Belgien
  • Länderverzeichnis
  • Für 7 Tage
  • Wassertemperatur
  • Wetterkarte
  • Widgets
  • user-avatar
    Anmelden

    Stündliche Wetter Lopastino

    Heute, 22 September, Sonntag

    Zeit Temperatur Niederschläge Wind Luftdruck Luftfeuchtigkeit
    00:00 +4°C° 0.5 mm 2 m/S 736 mmHg 96%
    01:00 +4°C° 0.5 mm 2 m/S 736 mmHg 96%
    02:00 +3°C° 0.5 mm 3 m/S 736 mmHg 96%
    03:00 +3°C° 0.3 mm 3 m/S 735 mmHg 96%
    04:00 +2°C° 0.3 mm 3 m/S 735 mmHg 95%
    05:00 +1°C° 0.3 mm 3 m/S 735 mmHg 94%
    06:00 +1°C° 0.1 mm 4 m/S 735 mmHg 94%
    07:00 +1°C° 0.1 mm 4 m/S 736 mmHg 94%
    08:00 +1°C° 0.1 mm 5 m/S 736 mmHg 93%
    09:00 +1°C° 0.2 mm 5 m/S 737 mmHg 92%
    10:00 +1°C° 0.2 mm 5 m/S 737 mmHg 90%
    11:00 +2°C° 0.2 mm 5 m/S 737 mmHg 88%
    12:00 +2°C° 0.3 mm 5 m/S 738 mmHg 86%
    13:00 +3°C° 0.3 mm 5 m/S 739 mmHg 85%
    14:00 +3°C° 0.3 mm 5 m/S 739 mmHg 84%
    15:00 +3°C° 0.1 mm 5 m/S 740 mmHg 84%
    16:00 +2°C° 0.1 mm 5 m/S 740 mmHg 85%
    17:00 +3°C° 0.1 mm 4 m/S 741 mmHg 85%
    18:00 +1°C° 0 mm 4 m/S 741 mmHg 87%
    19:00 +1°C° 0 mm 4 m/S 742 mmHg 88%
    20:00 0°C° 0 mm 4 m/S 742 mmHg 89%
    21:00 0°C° 0 mm 4 m/S 743 mmHg 89%
    22:00 0°C° 0 mm 4 m/S 743 mmHg 89%
    23:00 0°C° 0 mm 4 m/S 743 mmHg 88%

    Morgen, 23 September, Montag

    Zeit Temperatur Niederschläge Wind Luftdruck Luftfeuchtigkeit
    00:00 0°C° 0 mm 4 m/S 744 mmHg 89%
    01:00 -1°C° 0 mm 4 m/S 744 mmHg 90%
    02:00 -1°C° 0 mm 4 m/S 745 mmHg 91%
    03:00 -1°C° 0 mm 4 m/S 745 mmHg 90%
    04:00 -1°C° 0 mm 4 m/S 745 mmHg 90%
    05:00 -1°C° 0 mm 4 m/S 745 mmHg 89%
    06:00 -1°C° 0 mm 5 m/S 745 mmHg 84%
    07:00 0°C° 0 mm 5 m/S 745 mmHg 79%
    08:00 +1°C° 0 mm 5 m/S 745 mmHg 74%
    09:00 +2°C° 0 mm 5 m/S 745 mmHg 70%
    10:00 +3°C° 0 mm 5 m/S 746 mmHg 65%
    11:00 +5°C° 0 mm 5 m/S 746 mmHg 61%
    12:00 +5°C° 0 mm 5 m/S 746 mmHg 60%
    13:00 +5°C° 0 mm 5 m/S 746 mmHg 59%
    14:00 +6°C° 0 mm 5 m/S 746 mmHg 58%
    15:00 +5°C° 0.1 mm 4 m/S 746 mmHg 65%
    16:00 +4°C° 0.1 mm 4 m/S 746 mmHg 72%
    17:00 +3°C° 0.1 mm 4 m/S 746 mmHg 79%
    18:00 +2°C° 0.1 mm 3 m/S 746 mmHg 83%
    19:00 +2°C° 0.1 mm 3 m/S 746 mmHg 87%
    20:00 +2°C° 0.1 mm 2 m/S 746 mmHg 90%
    21:00 +1°C° 0 mm 2 m/S 746 mmHg 92%
    22:00 -1°C° 0 mm 2 m/S 747 mmHg 94%
    23:00 -1°C° 0 mm 2 m/S 747 mmHg 96%

    übermorgen, 24 September, Dienstag

    Zeit Temperatur Niederschläge Wind Luftdruck Luftfeuchtigkeit
    00:00 -2°C° 0 mm 2 m/S 747 mmHg 96%
    01:00 -2°C° 0 mm 2 m/S 747 mmHg 96%
    02:00 -2°C° 0 mm 2 m/S 747 mmHg 96%
    03:00 -2°C° 0 mm 2 m/S 747 mmHg 96%
    04:00 -3°C° 0 mm 2 m/S 747 mmHg 96%
    05:00 -3°C° 0 mm 2 m/S 747 mmHg 95%
    06:00 -2°C° 0 mm 2 m/S 747 mmHg 89%
    07:00 -1°C° 0 mm 2 m/S 747 mmHg 83%
    08:00 +1°C° 0 mm 3 m/S 747 mmHg 77%
    09:00 +2°C° 0 mm 3 m/S 747 mmHg 73%
    10:00 +3°C° 0 mm 3 m/S 747 mmHg 68%
    11:00 +4°C° 0 mm 3 m/S 748 mmHg 64%
    12:00 +4°C° 0 mm 3 m/S 747 mmHg 64%
    13:00 +4°C° 0 mm 3 m/S 747 mmHg 64%
    14:00 +4°C° 0 mm 3 m/S 747 mmHg 64%
    15:00 +3°C° 0 mm 3 m/S 747 mmHg 69%
    16:00 +3°C° 0 mm 3 m/S 747 mmHg 74%
    17:00 +4°C° 0 mm 2 m/S 747 mmHg 79%
    18:00 +3°C° 0 mm 2 m/S 747 mmHg 82%
    19:00 +3°C° 0 mm 2 m/S 747 mmHg 85%
    20:00 +2°C° 0 mm 2 m/S 747 mmHg 88%
    21:00 +2°C° 0 mm 2 m/S 747 mmHg 88%
    22:00 +1°C° 0 mm 2 m/S 747 mmHg 89%
    23:00 +1°C° 0 mm 2 m/S 747 mmHg 90%

    25 September, Mittwoch

    Zeit Temperatur Niederschläge Wind Luftdruck Luftfeuchtigkeit
    00:00 -1°C° 0 mm 2 m/S 747 mmHg 91%
    01:00 -1°C° 0 mm 2 m/S 747 mmHg 92%
    02:00 -1°C° 0 mm 2 m/S 747 mmHg 93%
    03:00 -1°C° 0 mm 2 m/S 747 mmHg 94%
    04:00 -2°C° 0 mm 2 m/S 747 mmHg 95%
    05:00 0°C° 0 mm 1 m/S 747 mmHg 96%
    06:00 +1°C° 0 mm 1 m/S 747 mmHg 92%
    07:00 +3°C° 0 mm 1 m/S 747 mmHg 88%
    08:00 +4°C° 0 mm 1 m/S 747 mmHg 83%
    09:00 +5°C° 0 mm 1 m/S 747 mmHg 78%
    10:00 +7°C° 0 mm 1 m/S 748 mmHg 72%
    11:00 +8°C° 0 mm 1 m/S 748 mmHg 67%
    12:00 +8°C° 0 mm 1 m/S 748 mmHg 67%
    13:00 +8°C° 0 mm 1 m/S 748 mmHg 67%
    14:00 +8°C° 0 mm 1 m/S 747 mmHg 67%
    15:00 +8°C° 0 mm 1 m/S 747 mmHg 72%
    16:00 +7°C° 0 mm 1 m/S 747 mmHg 76%
    17:00 +5°C° 0 mm 0 m/S 747 mmHg 80%
    18:00 +4°C° 0 mm 0 m/S 747 mmHg 83%
    19:00 +4°C° 0 mm 1 m/S 747 mmHg 87%
    20:00 +3°C° 0 mm 1 m/S 748 mmHg 90%
    21:00 +3°C° 0 mm 1 m/S 748 mmHg 91%
    22:00 +3°C° 0 mm 1 m/S 748 mmHg 92%
    23:00 +3°C° 0 mm 1 m/S 748 mmHg 93%

    26 September, Donnerstag

    Zeit Temperatur Niederschläge Wind Luftdruck Luftfeuchtigkeit
    00:00 +3°C° 0 mm 1 m/S 747 mmHg 93%
    01:00 +3°C° 0 mm 1 m/S 747 mmHg 94%
    02:00 +3°C° 0 mm 1 m/S 747 mmHg 94%
    03:00 +3°C° 0.1 mm 1 m/S 747 mmHg 95%
    04:00 +3°C° 0.1 mm 1 m/S 747 mmHg 95%
    05:00 +2°C° 0.1 mm 2 m/S 746 mmHg 96%
    06:00 +2°C° 0.2 mm 2 m/S 746 mmHg 96%
    07:00 +3°C° 0.2 mm 2 m/S 746 mmHg 95%
    08:00 +2°C° 0.2 mm 3 m/S 745 mmHg 95%
    09:00 +3°C° 0.1 mm 3 m/S 745 mmHg 95%
    10:00 +3°C° 0.1 mm 3 m/S 745 mmHg 94%
    11:00 +3°C° 0.1 mm 3 m/S 745 mmHg 94%
    12:00 +3°C° 0.1 mm 3 m/S 745 mmHg 94%
    13:00 +3°C° 0.1 mm 3 m/S 745 mmHg 94%
    14:00 +4°C° 0.1 mm 2 m/S 745 mmHg 94%
    15:00 +4°C° 0 mm 2 m/S 745 mmHg 93%
    16:00 +4°C° 0 mm 2 m/S 745 mmHg 93%
    17:00 +4°C° 0 mm 2 m/S 745 mmHg 93%
    18:00 +3°C° 0 mm 2 m/S 745 mmHg 94%
    19:00 +3°C° 0 mm 2 m/S 745 mmHg 95%
    20:00 +3°C° 0 mm 2 m/S 745 mmHg 96%
    21:00 +3°C° 0 mm 2 m/S 745 mmHg 96%
    22:00 +2°C° 0 mm 2 m/S 745 mmHg 97%
    23:00 +2°C° 0 mm 2 m/S 745 mmHg 97%

    27 September, Freitag

    Zeit Temperatur Niederschläge Wind Luftdruck Luftfeuchtigkeit
    00:00 +2°C° 0 mm 2 m/S 745 mmHg 96%
    01:00 +2°C° 0 mm 2 m/S 745 mmHg 96%
    02:00 +2°C° 0 mm 2 m/S 745 mmHg 96%
    03:00 +1°C° 0 mm 2 m/S 745 mmHg 96%
    04:00 +1°C° 0 mm 2 m/S 745 mmHg 96%
    05:00 -1°C° 0 mm 2 m/S 745 mmHg 96%
    06:00 +1°C° 0 mm 2 m/S 745 mmHg 93%
    07:00 +2°C° 0 mm 2 m/S 746 mmHg 91%
    08:00 +3°C° 0 mm 2 m/S 746 mmHg 88%
    09:00 +4°C° 0 mm 2 m/S 746 mmHg 82%
    10:00 +4°C° 0 mm 3 m/S 746 mmHg 76%
    11:00 +5°C° 0 mm 3 m/S 746 mmHg 70%
    12:00 +7°C° 0 mm 2 m/S 746 mmHg 68%
    13:00 +7°C° 0 mm 2 m/S 746 mmHg 66%
    14:00 +7°C° 0 mm 2 m/S 746 mmHg 64%
    15:00 +6°C° 0 mm 2 m/S 746 mmHg 67%
    16:00 +7°C° 0 mm 1 m/S 746 mmHg 70%
    17:00 +6°C° 0 mm 1 m/S 746 mmHg 73%
    18:00 +5°C° 0 mm 1 m/S 747 mmHg 77%
    19:00 +3°C° 0 mm 0 m/S 747 mmHg 81%
    20:00 +2°C° 0 mm 0 m/S 747 mmHg 85%
    21:00 +2°C° 0 mm 0 m/S 747 mmHg 86%
    22:00 +1°C° 0 mm 0 m/S 748 mmHg 87%
    23:00 +2°C° 0 mm 1 m/S 748 mmHg 89%
    Mehr zeigen